| time (UTC) | temp F | wind direction | speed MPH | gust MPH | rain 1hr in | rain 24hr in | rain mn in | humidity % | barometer mb |
| 20260507232502 | 0 | 202 | 5.0 | 8.0 | 0.00 | 0.01 | 0.01 | 1013.4 | |
| 20260507232002 | 0 | 266 | 5.0 | 8.0 | 0.01 | 0.01 | 0.01 | 1013.5 | |
| 20260507231501 | 0 | 231 | 5.0 | 10.0 | 0.01 | 0.01 | 0.01 | 1013.6 | |
| 20260507231001 | 0 | 251 | 8.0 | 11.0 | 0.01 | 0.01 | 0.01 | 1013.7 | |
| 20260507230505 | 0 | 248 | 6.0 | 11.0 | 0.01 | 0.01 | 0.01 | 1013.8 | |
| 20260507225502 | 0 | 255 | 5.0 | 8.0 | 0.01 | 0.01 | 0.01 | 1014.1 | |
| 20260507225002 | 0 | 292 | 5.0 | 10.0 | 0.01 | 0.01 | 0.01 | 1014.1 | |
| 20260507224501 | 0 | 264 | 7.0 | 10.0 | 0.01 | 0.01 | 0.01 | 1014.1 | |
| 20260507224002 | 0 | 284 | 5.0 | 8.0 | 0.01 | 0.01 | 0.01 | 1014.1 | |
| 20260507223501 | 0 | 284 | 4.0 | 11.0 | 0.01 | 0.01 | 0.01 | 1014.1 | |
| 20260507223002 | 0 | 283 | 6.0 | 14.0 | 0.01 | 0.01 | 0.01 | 1014.2 | |
| 20260507222503 | 0 | 297 | 9.0 | 20.0 | 0.01 | 0.01 | 0.01 | 1014.3 | |
| 20260507221501 | 0 | 309 | 11.0 | 25.0 | 0.00 | 0.00 | 0.00 | 1014.3 | |
| 20260507221003 | 0 | 324 | 15.0 | 25.0 | 0.00 | 0.00 | 0.00 | 1014.0 | |
| 20260507220501 | 0 | 297 | 11.0 | 23.0 | 0.00 | 0.00 | 0.00 | 1013.7 | |
| 20260507220007 | 0 | 273 | 3.0 | 10.0 | 0.00 | 0.00 | 0.00 | 1013.3 | |
| 20260507215501 | 0 | 244 | 5.0 | 11.0 | 0.00 | 0.00 | 0.00 | 1013.1 | |
| 20260507215001 | 0 | 227 | 6.0 | 9.0 | 0.00 | 0.00 | 0.00 | 1013.0 | |
| 20260507214502 | 0 | 216 | 5.0 | 13.0 | 0.00 | 0.00 | 0.00 | 1013.0 | |
| 20260507214003 | 0 | 256 | 8.0 | 13.0 | 0.00 | 0.00 | 0.00 | 1012.9 | |
| 20260507213501 | 0 | 274 | 6.0 | 11.0 | 0.00 | 0.00 | 0.00 | 1012.8 | |
| 20260507213002 | 0 | 278 | 6.0 | 12.0 | 0.00 | 0.00 | 0.00 | 1012.7 | |
| 20260507212502 | 0 | 220 | 7.0 | 13.0 | 0.00 | 0.00 | 0.00 | 1012.8 | |
| 20260507212002 | 0 | 247 | 7.0 | 13.0 | 0.00 | 0.00 | 0.00 | 1012.9 | |
| 20260507211501 | 0 | 275 | 6.0 | 14.0 | 0.00 | 0.00 | 0.00 | 1012.8 | |
| 20260507210501 | 0 | 314 | 7.0 | 15.0 | 0.00 | 0.00 | 0.00 | 1013.0 | |
| 20260507210005 | 0 | 284 | 9.0 | 14.0 | 0.00 | 0.00 | 0.00 | 1013.1 | |
| 20260507205002 | 0 | 252 | 7.0 | 11.0 | 0.00 | 0.00 | 0.00 | 1013.1 | |
| 20260507204501 | 0 | 267 | 7.0 | 10.0 | 0.00 | 0.00 | 0.00 | 1013.2 | |
| 20260507204001 | 0 | 280 | 5.0 | 12.0 | 0.00 | 0.00 | 0.00 | 1013.3 | |
| 20260507203002 | 0 | 273 | 8.0 | 14.0 | 0.00 | 0.00 | 0.00 | 1013.2 | |
| 20260507202501 | 0 | 238 | 9.0 | 14.0 | 0.00 | 0.00 | 0.00 | 1013.3 | |
| 20260507202001 | 0 | 247 | 5.0 | 11.0 | 0.00 | 0.00 | 0.00 | 1013.3 | |
| 20260507201501 | 0 | 234 | 7.0 | 12.0 | 0.00 | 0.00 | 0.00 | 1013.3 | |
| 20260507200501 | 0 | 265 | 7.0 | 11.0 | 0.00 | 0.00 | 0.00 | 1013.5 | |
| 20260507195502 | 0 | 278 | 6.0 | 13.0 | 0.00 | 0.00 | 0.00 | 1013.8 | |
| 20260507195001 | 0 | 276 | 8.0 | 11.0 | 0.00 | 0.00 | 0.00 | 1013.8 | |
| 20260507194504 | 0 | 283 | 8.0 | 11.0 | 0.00 | 0.00 | 0.00 | 1013.9 | |
| 20260507193501 | 0 | 254 | 7.0 | 13.0 | 0.00 | 0.00 | 0.00 | 1013.9 | |
| 20260507193002 | 0 | 290 | 5.0 | 11.0 | 0.00 | 0.00 | 0.00 | 1014.0 | |
| 20260507192502 | 0 | 196 | 5.0 | 12.0 | 0.00 | 0.00 | 0.00 | 1014.0 | |
| 20260507192002 | 0 | 319 | 6.0 | 12.0 | 0.00 | 0.00 | 0.00 | 1014.1 | |
| 20260507191501 | 0 | 271 | 5.0 | 11.0 | 0.00 | 0.00 | 0.00 | 1014.2 | |
| 20260507190502 | 0 | 234 | 4.0 | 11.0 | 0.00 | 0.00 | 0.00 | 1014.3 | |
| 20260507190006 | 0 | 264 | 8.0 | 11.0 | 0.00 | 0.00 | 0.00 | 1014.3 | |
| 20260507185002 | 0 | 222 | 6.0 | 12.0 | 0.00 | 0.00 | 0.00 | 1014.1 | |
| 20260507184502 | 0 | 239 | 6.0 | 10.0 | 0.00 | 0.00 | 0.00 | 1014.2 | |
| 20260507184002 | 0 | 300 | 4.0 | 11.0 | 0.00 | 0.00 | 0.00 | 1014.3 | |
| 20260507183501 | 0 | 237 | 5.0 | 13.0 | 0.00 | 0.00 | 0.00 | 1014.5 | |
| 20260507183001 | 0 | 271 | 6.0 | 13.0 | 0.00 | 0.00 | 0.00 | 1014.5 | |
| 20260507182504 | 0 | 231 | 4.0 | 14.0 | 0.00 | 0.00 | 0.00 | 1014.4 | |
| 20260507182001 | 0 | 214 | 5.0 | 14.0 | 0.00 | 0.00 | 0.00 | 1014.4 | |
| 20260507181501 | 0 | 274 | 5.0 | 13.0 | 0.00 | 0.00 | 0.00 | 1014.6 | |
| 20260507180503 | 0 | 304 | 5.0 | 11.0 | 0.00 | 0.00 | 0.00 | 1014.6 | |
| 20260507180005 | 0 | 297 | 7.0 | 12.0 | 0.00 | 0.00 | 0.00 | 1014.8 | |
| 20260507175501 | 0 | 221 | 6.0 | 10.0 | 0.00 | 0.00 | 0.00 | 1014.8 | |
| 20260507175003 | 0 | 293 | 6.0 | 14.0 | 0.00 | 0.00 | 0.00 | 1014.9 | |
| 20260507174503 | 0 | 297 | 7.0 | 14.0 | 0.00 | 0.00 | 0.00 | 1014.9 | |
| 20260507174000 | 0 | 262 | 6.0 | 12.0 | 0.00 | 0.00 | 0.00 | 1014.9 | |
| 20260507173501 | 0 | 320 | 5.0 | 11.0 | 0.00 | 0.00 | 0.00 | 1015.0 | |
| 20260507173001 | 0 | 278 | 7.0 | 12.0 | 0.00 | 0.00 | 0.00 | 1015.1 | |
| 20260507172503 | 0 | 293 | 6.0 | 12.0 | 0.00 | 0.00 | 0.00 | 1015.2 | |
| 20260507172001 | 0 | 316 | 6.0 | 11.0 | 0.00 | 0.00 | 0.00 | 1015.3 | |
| 20260507171501 | 0 | 276 | 6.0 | 12.0 | 0.00 | 0.00 | 0.00 | 1015.4 | |
| 20260507171001 | 0 | 288 | 8.0 | 13.0 | 0.00 | 0.00 | 0.00 | 1015.4 | |
| 20260507170005 | 0 | 325 | 8.0 | 14.0 | 0.00 | 0.00 | 0.00 | 1015.6 | |
| 20260507165005 | 0 | 250 | 7.0 | 13.0 | 0.00 | 0.00 | 0.00 | 1015.7 | |
| 20260507164501 | 0 | 271 | 9.0 | 14.0 | 0.00 | 0.00 | 0.00 | 1015.8 | |
| 20260507164001 | 0 | 289 | 4.0 | 12.0 | 0.00 | 0.00 | 0.00 | 1015.9 | |
| 20260507163501 | 0 | 282 | 7.0 | 14.0 | 0.00 | 0.00 | 0.00 | 1016.0 | |
| 20260507163002 | 0 | 263 | 8.0 | 14.0 | 0.00 | 0.00 | 0.00 | 1015.9 | |
| 20260507161501 | 0 | 308 | 9.0 | 12.0 | 0.00 | 0.00 | 0.00 | 1016.0 | |
| 20260507161001 | 0 | 302 | 6.0 | 12.0 | 0.00 | 0.00 | 0.00 | 1016.1 | |
| 20260507160503 | 0 | 281 | 8.0 | 12.0 | 0.00 | 0.00 | 0.00 | 1016.0 | |
| 20260507160007 | 0 | 309 | 5.0 | 11.0 | 0.00 | 0.00 | 0.00 | 1016.1 | |
| 20260507155002 | 0 | 288 | 8.0 | 12.0 | 0.00 | 0.00 | 0.00 | 1016.1 | |
| 20260507154500 | 0 | 290 | 5.0 | 9.0 | 0.00 | 0.00 | 0.00 | 1016.1 | |
| 20260507154001 | 0 | 278 | 6.0 | 9.0 | 0.00 | 0.00 | 0.00 | 1016.2 | |
| 20260507153002 | 0 | 292 | 5.0 | 11.0 | 0.00 | 0.00 | 0.00 | 1016.1 | |
| 20260507152501 | 0 | 307 | 6.0 | 11.0 | 0.00 | 0.00 | 0.00 | 1016.1 | |
| 20260507151501 | 0 | 279 | 4.0 | 9.0 | 0.00 | 0.00 | 0.00 | 1015.9 | |
| 20260507151003 | 0 | 297 | 5.0 | 9.0 | 0.00 | 0.00 | 0.00 | 1015.8 | |
| 20260507150501 | 0 | 270 | 5.0 | 9.0 | 0.00 | 0.00 | 0.00 | 1015.8 | |
| 20260507150006 | 0 | 297 | 5.0 | 11.0 | 0.00 | 0.00 | 0.00 | 1015.9 | |
| 20260507145502 | 0 | 278 | 6.0 | 11.0 | 0.00 | 0.00 | 0.00 | 1015.9 | |
| 20260507145002 | 0 | 275 | 6.0 | 12.0 | 0.00 | 0.00 | 0.00 | 1015.9 | |
| 20260507144502 | 0 | 253 | 5.0 | 12.0 | 0.00 | 0.00 | 0.00 | 1016.0 | |
| 20260507144001 | 0 | 299 | 7.0 | 12.0 | 0.00 | 0.00 | 0.00 | 1016.0 | |
| 20260507143501 | 0 | 295 | 8.0 | 12.0 | 0.00 | 0.00 | 0.00 | 1016.0 | |
| 20260507143001 | 0 | 291 | 6.0 | 11.0 | 0.00 | 0.00 | 0.00 | 1016.0 | |
| 20260507142502 | 0 | 307 | 7.0 | 11.0 | 0.00 | 0.00 | 0.00 | 1015.9 | |
| 20260507142003 | 0 | 281 | 7.0 | 11.0 | 0.00 | 0.00 | 0.00 | 1016.0 | |
| 20260507141003 | 0 | 298 | 6.0 | 9.0 | 0.00 | 0.00 | 0.00 | 1016.0 | |
| 20260507140004 | 0 | 281 | 6.0 | 9.0 | 0.00 | 0.00 | 0.00 | 1016.0 | |
| 20260507135502 | 0 | 291 | 5.0 | 10.0 | 0.00 | 0.00 | 0.00 | 1016.0 | |
| 20260507135003 | 0 | 266 | 6.0 | 10.0 | 0.00 | 0.00 | 0.00 | 1016.0 | |
| 20260507134502 | 0 | 283 | 6.0 | 9.0 | 0.00 | 0.00 | 0.00 | 1016.1 | |
| 20260507134001 | 0 | 278 | 5.0 | 9.0 | 0.00 | 0.00 | 0.00 | 1016.1 | |
| 20260507133003 | 0 | 264 | 4.0 | 7.0 | 0.00 | 0.00 | 0.00 | 1016.1 | |
| 20260507132502 | 0 | 215 | 5.0 | 8.0 | 0.00 | 0.00 | 0.00 | 1016.1 | |
| 20260507132001 | 0 | 238 | 4.0 | 8.0 | 0.00 | 0.00 | 0.00 | 100 | 1016.2 |
| 20260507131501 | 0 | 277 | 4.0 | 7.0 | 0.00 | 0.00 | 0.00 | 1016.1 | |
| 20260507131001 | 0 | 268 | 3.0 | 8.0 | 0.00 | 0.00 | 0.00 | 1016.1 | |
| 20260507130502 | 0 | 272 | 4.0 | 6.0 | 0.00 | 0.00 | 0.00 | 1016.1 | |
| 20260507130002 | 0 | 283 | 3.0 | 6.0 | 0.00 | 0.00 | 0.00 | 1016.0 | |
| 20260507125001 | 44 | 283 | 4.0 | 6.0 | 0.00 | 0.00 | 0.00 | 69 | 1015.9 |
| 20260507124500 | 0 | 275 | 3.0 | 5.0 | 0.00 | 0.00 | 0.00 | 1015.9 | |
| 20260507123500 | 0 | 268 | 3.0 | 5.0 | 0.00 | 0.00 | 0.00 | 71 | 1015.9 |
| 20260507123000 | 43 | 285 | 3.0 | 4.0 | 0.00 | 0.00 | 0.00 | 100 | 1015.8 |
| 20260507122501 | 43 | 243 | 2.0 | 4.0 | 0.00 | 0.00 | 0.00 | 1015.9 | |
| 20260507122001 | 0 | 232 | 1.0 | 3.0 | 0.00 | 0.00 | 0.00 | 100 | 1015.8 |
| 20260507121500 | 42 | 283 | 1.0 | 3.0 | 0.00 | 0.00 | 0.00 | 1015.7 | |
| 20260507121000 | 0 | 277 | 1.0 | 3.0 | 0.00 | 0.00 | 0.00 | 1015.7 | |
| 20260507120501 | 0 | 268 | 2.0 | 3.0 | 0.00 | 0.00 | 0.00 | 1015.8 | |
| 20260507120004 | 0 | 278 | 2.0 | 4.0 | 0.00 | 0.00 | 0.00 | 1015.8 | |
| 20260507115459 | 0 | 274 | 3.0 | 4.0 | 0.00 | 0.00 | 0.00 | 1015.8 | |
| 20260507115001 | 0 | 276 | 1.0 | 3.0 | 0.00 | 0.00 | 0.00 | 1015.8 | |
| 20260507114000 | 0 | 262 | 1.0 | 3.0 | 0.00 | 0.00 | 0.00 | 1015.9 | |
| 20260507113500 | 0 | 248 | 1.0 | 3.0 | 0.00 | 0.00 | 0.00 | 1015.9 | |
| 20260507113000 | 0 | 260 | 1.0 | 2.0 | 0.00 | 0.00 | 0.00 | 1015.8 | |
| 20260507112500 | 0 | 247 | 0.0 | 0.0 | 0.00 | 0.00 | 0.00 | 1015.7 | |
| 20260507111500 | 0 | 275 | 0.0 | 1.0 | 0.00 | 0.00 | 0.00 | 1015.6 | |
| 20260507111000 | 0 | 275 | 0.0 | 1.0 | 0.00 | 0.00 | 0.00 | 1015.7 | |
| 20260507110500 | 0 | 276 | 0.0 | 1.0 | 0.00 | 0.00 | 0.00 | 1015.7 | |
| 20260507110004 | 0 | 277 | 0.0 | 1.0 | 0.00 | 0.00 | 0.00 | 1015.6 | |
| 20260507105500 | 0 | 277 | 1.0 | 2.0 | 0.00 | 0.00 | 0.00 | 1015.6 | |
| 20260507105001 | 0 | 275 | 1.0 | 2.0 | 0.00 | 0.00 | 0.00 | 1015.6 | |
| 20260507104501 | 0 | 271 | 0.0 | 0.0 | 0.00 | 0.00 | 0.00 | 1015.5 | |
| 20260507104001 | 0 | 271 | 0.0 | 1.0 | 0.00 | 0.00 | 0.00 | 1015.6 | |
| 20260507103500 | 0 | 256 | 0.0 | 1.0 | 0.00 | 0.00 | 0.00 | 1015.5 | |
| 20260507103000 | 0 | 256 | 0.0 | 0.0 | 0.00 | 0.00 | 0.00 | 1015.6 | |
| 20260507102501 | 0 | 256 | 0.0 | 0.0 | 0.00 | 0.00 | 0.00 | 1015.5 | |
| 20260507102002 | 0 | 256 | 0.0 | 2.0 | 0.00 | 0.00 | 0.00 | 1015.5 | |
| 20260507101502 | 0 | 256 | 0.0 | 2.0 | 0.00 | 0.00 | 0.00 | 1015.6 | |
| 20260507100500 | 0 | 237 | 1.0 | 3.0 | 0.00 | 0.00 | 0.00 | 1015.7 | |
| 20260507095501 | 0 | 221 | 1.0 | 2.0 | 0.00 | 0.00 | 0.00 | 1015.6 | |
| 20260507095001 | 0 | 233 | 1.0 | 2.0 | 0.00 | 0.00 | 0.00 | 1015.6 | |
| 20260507094500 | 0 | 255 | 0.0 | 0.0 | 0.00 | 0.00 | 0.00 | 1015.5 | |
| 20260507094001 | 0 | 255 | 0.0 | 0.0 | 0.00 | 0.00 | 0.00 | 1015.4 | |
| 20260507093500 | 0 | 255 | 0.0 | 0.0 | 0.00 | 0.00 | 0.00 | 1015.4 | |
| 20260507093000 | 0 | 255 | 0.0 | 1.0 | 0.00 | 0.00 | 0.00 | 1015.4 | |
| 20260507092500 | 0 | 265 | 0.0 | 1.0 | 0.00 | 0.00 | 0.00 | 1015.5 | |
| 20260507092002 | 0 | 245 | 0.0 | 1.0 | 0.00 | 0.00 | 0.00 | 1015.4 | |
| 20260507091500 | 0 | 259 | 0.0 | 0.0 | 0.00 | 0.00 | 0.00 | 1015.4 | |
| 20260507091000 | 0 | 259 | 0.0 | 0.0 | 0.00 | 0.00 | 0.00 | 1015.5 | |
| 20260507090004 | 0 | 259 | 0.0 | 0.0 | 0.00 | 0.00 | 0.00 | 1015.4 | |
| 20260507085500 | 0 | 259 | 0.0 | 0.0 | 0.00 | 0.00 | 0.00 | 1015.5 | |
| 20260507084959 | 0 | 259 | 0.0 | 0.0 | 0.00 | 0.00 | 0.00 | 1015.6 | |
| 20260507084500 | 0 | 259 | 0.0 | 2.0 | 0.00 | 0.00 | 0.00 | 1015.6 | |
| 20260507084001 | 0 | 259 | 0.0 | 2.0 | 0.00 | 0.00 | 0.00 | 1015.4 | |
| 20260507083501 | 0 | 252 | 1.0 | 2.0 | 0.00 | 0.00 | 0.00 | 1015.4 | |
| 20260507083000 | 0 | 226 | 0.0 | 1.0 | 0.00 | 0.00 | 0.00 | 1015.4 | |
| 20260507082500 | 0 | 225 | 0.0 | 2.0 | 0.00 | 0.00 | 0.00 | 1015.3 | |
| 20260507081501 | 0 | 250 | 0.0 | 2.0 | 0.00 | 0.00 | 0.00 | 1015.4 | |
| 20260507081000 | 0 | 285 | 0.0 | 1.0 | 0.00 | 0.00 | 0.00 | 1015.4 | |
| 20260507080502 | 0 | 285 | 0.0 | 1.0 | 0.00 | 0.00 | 0.00 | 1015.3 | |
| 20260507080003 | 0 | 285 | 1.0 | 3.0 | 0.00 | 0.00 | 0.00 | 1015.3 | |
| 20260507075501 | 0 | 284 | 2.0 | 3.0 | 0.00 | 0.00 | 0.00 | 1015.4 | |
| 20260507075001 | 0 | 296 | 2.0 | 3.0 | 0.00 | 0.00 | 0.00 | 1015.4 | |
| 20260507074459 | 0 | 293 | 2.0 | 3.0 | 0.00 | 0.00 | 0.00 | 1015.4 | |
| 20260507074000 | 0 | 287 | 1.0 | 2.0 | 0.00 | 0.00 | 0.00 | 1015.4 | |
| 20260507073501 | 0 | 298 | 1.0 | 2.0 | 0.00 | 0.00 | 0.00 | 1015.3 | |
| 20260507073000 | 0 | 298 | 1.0 | 2.0 | 0.00 | 0.00 | 0.00 | 1015.3 | |
| 20260507072000 | 0 | 298 | 2.0 | 2.0 | 0.00 | 0.00 | 0.00 | 1015.4 | |
| 20260507071500 | 0 | 300 | 1.0 | 2.0 | 0.00 | 0.00 | 0.00 | 1015.4 | |
| 20260507071000 | 0 | 300 | 1.0 | 4.0 | 0.00 | 0.00 | 0.00 | 1015.4 | |
| 20260507070500 | 0 | 301 | 2.0 | 4.0 | 0.00 | 0.00 | 0.00 | 1015.3 | |
| 20260507070004 | 0 | 300 | 2.0 | 3.0 | 0.00 | 0.00 | 0.00 | 1015.3 | |
| 20260507065501 | 0 | 300 | 2.0 | 3.0 | 0.00 | 0.01 | 0.00 | 1015.4 | |
| 20260507065000 | 0 | 298 | 2.0 | 3.0 | 0.00 | 0.01 | 0.00 | 1015.5 | |
| 20260507064002 | 0 | 300 | 1.0 | 3.0 | 0.00 | 0.01 | 0.00 | 1015.6 | |
| 20260507063500 | 0 | 297 | 1.0 | 4.0 | 0.00 | 0.01 | 0.00 | 1015.6 | |
| 20260507063000 | 0 | 302 | 1.0 | 4.0 | 0.00 | 0.01 | 0.00 | 1015.6 | |
| 20260507062502 | 0 | 290 | 3.0 | 4.0 | 0.00 | 0.01 | 0.00 | 1015.7 | |
| 20260507062000 | 0 | 304 | 3.0 | 4.0 | 0.00 | 0.01 | 0.00 | 1015.7 | |
| 20260507061459 | 0 | 302 | 3.0 | 5.0 | 0.00 | 0.01 | 0.00 | 1015.8 | |
| 20260507061000 | 0 | 302 | 3.0 | 5.0 | 0.00 | 0.01 | 0.00 | 1015.8 | |
| 20260507060501 | 0 | 289 | 3.0 | 5.0 | 0.00 | 0.01 | 0.00 | 1015.8 | |
| 20260507054500 | 0 | 302 | 3.0 | 6.0 | 0.00 | 0.06 | 0.00 | 1015.6 | |
| 20260507054000 | 0 | 306 | 3.0 | 5.0 | 0.00 | 0.06 | 0.00 | 1015.7 | |
| 20260507053501 | 0 | 304 | 3.0 | 5.0 | 0.00 | 0.06 | 0.00 | 1015.7 | |
| 20260507053001 | 0 | 297 | 3.0 | 5.0 | 0.00 | 0.06 | 0.00 | 1015.8 | |
| 20260507052001 | 0 | 281 | 4.0 | 6.0 | 0.00 | 0.06 | 0.00 | 1015.8 | |
| 20260507051459 | 0 | 289 | 3.0 | 5.0 | 0.00 | 0.06 | 0.00 | 1015.7 | |
| 20260507051001 | 0 | 293 | 3.0 | 5.0 | 0.00 | 0.06 | 0.00 | 1015.7 | |
| 20260507050004 | 0 | 304 | 3.0 | 5.0 | 0.00 | 0.06 | 0.00 | 1015.7 | |
| 20260507045001 | 0 | 297 | 3.0 | 4.0 | 0.00 | 0.09 | 0.00 | 1015.8 | |
| 20260507044501 | 0 | 285 | 2.0 | 5.0 | 0.00 | 0.09 | 0.00 | 1015.7 | |
| 20260507044002 | 0 | 294 | 3.0 | 5.0 | 0.00 | 0.09 | 0.00 | 1015.6 | |
| 20260507043502 | 0 | 297 | 3.0 | 4.0 | 0.00 | 0.09 | 0.00 | 1015.5 | |
| 20260507043001 | 0 | 297 | 3.0 | 4.0 | 0.00 | 0.09 | 0.00 | 1015.6 | |
| 20260507042001 | 0 | 300 | 2.0 | 3.0 | 0.00 | 0.09 | 0.00 | 1015.6 | |
| 20260507041503 | 0 | 288 | 1.0 | 2.0 | 0.00 | 0.09 | 0.00 | 1015.4 | |
| 20260507041003 | 0 | 281 | 1.0 | 3.0 | 0.00 | 0.09 | 0.00 | 1015.5 | |
| 20260507040006 | 0 | 276 | 1.0 | 2.0 | 0.00 | 0.09 | 0.00 | 1015.4 | |
| 20260507035503 | 0 | 271 | 1.0 | 2.0 | 0.00 | 0.22 | 0.09 | 1015.5 | |
| 20260507035002 | 0 | 259 | 1.0 | 3.0 | 0.00 | 0.22 | 0.09 | 1015.4 | |
| 20260507034501 | 0 | 273 | 2.0 | 3.0 | 0.00 | 0.22 | 0.09 | 1015.4 | |
| 20260507034003 | 0 | 285 | 1.0 | 3.0 | 0.00 | 0.22 | 0.09 | 1015.3 | |
| 20260507033503 | 0 | 266 | 0.0 | 3.0 | 0.00 | 0.22 | 0.09 | 1015.3 | |
| 20260507033003 | 0 | 258 | 1.0 | 3.0 | 0.00 | 0.22 | 0.09 | 1015.3 | |
| 20260507032502 | 0 | 276 | 1.0 | 3.0 | 0.00 | 0.22 | 0.09 | 1015.3 | |
| 20260507032003 | 0 | 264 | 1.0 | 3.0 | 0.00 | 0.22 | 0.09 | 1015.3 | |
| 20260507031502 | 0 | 262 | 1.0 | 4.0 | 0.00 | 0.22 | 0.09 | 1015.4 | |
| 20260507031002 | 0 | 248 | 2.0 | 4.0 | 0.00 | 0.22 | 0.09 | 1015.3 | |
| 20260507030503 | 0 | 272 | 0.0 | 2.0 | 0.00 | 0.22 | 0.09 | 1015.3 | |
| 20260507025502 | 0 | 273 | 1.0 | 2.0 | 0.00 | 0.30 | 0.09 | 1015.2 | |
| 20260507024502 | 0 | 255 | 1.0 | 2.0 | 0.00 | 0.30 | 0.09 | 1015.2 | |
| 20260507024002 | 0 | 258 | 0.0 | 2.0 | 0.00 | 0.30 | 0.09 | 1015.0 | |
| 20260507023502 | 0 | 280 | 1.0 | 2.0 | 0.00 | 0.30 | 0.09 | 1015.0 | |
| 20260507023003 | 0 | 280 | 1.0 | 2.0 | 0.00 | 0.30 | 0.09 | 1014.9 | |
| 20260507022502 | 0 | 275 | 1.0 | 2.0 | 0.00 | 0.30 | 0.09 | 1014.9 | |
| 20260507022001 | 0 | 279 | 1.0 | 2.0 | 0.00 | 0.30 | 0.09 | 1014.9 | |
| 20260507021501 | 0 | 279 | 1.0 | 2.0 | 0.00 | 0.30 | 0.09 | 1014.9 | |
| 20260507021002 | 0 | 279 | 1.0 | 3.0 | 0.00 | 0.30 | 0.09 | 1014.9 | |
| 20260507020503 | 0 | 272 | 2.0 | 3.0 | 0.00 | 0.30 | 0.09 | 1014.9 | |
| 20260507020007 | 0 | 283 | 2.0 | 3.0 | 0.00 | 0.30 | 0.09 | 1014.9 | |
| 20260507015502 | 0 | 286 | 2.0 | 3.0 | 0.00 | 0.40 | 0.09 | 1014.8 | |
| 20260507015004 | 0 | 285 | 2.0 | 3.0 | 0.00 | 0.40 | 0.09 | 1014.9 | |
| 20260507014501 | 0 | 280 | 2.0 | 3.0 | 0.00 | 0.40 | 0.09 | 1014.9 | |
| 20260507013503 | 0 | 268 | 1.0 | 3.0 | 0.00 | 0.40 | 0.09 | 1014.8 | |
| 20260507012502 | 0 | 279 | 1.0 | 2.0 | 0.00 | 0.40 | 0.09 | 1014.7 | |
| 20260507012004 | 0 | 280 | 1.0 | 3.0 | 0.00 | 0.40 | 0.09 | 1014.7 | |
| 20260507011501 | 0 | 280 | 2.0 | 3.0 | 0.00 | 0.40 | 0.09 | 1014.7 | |
| 20260507010502 | 0 | 290 | 2.0 | 6.0 | 0.00 | 0.40 | 0.09 | 1014.5 | |
| 20260507010005 | 0 | 271 | 3.0 | 6.0 | 0.00 | 0.40 | 0.09 | 1014.6 | |
| 20260507005502 | 0 | 289 | 2.0 | 4.0 | 0.00 | 0.48 | 0.09 | 1014.6 | |
| 20260507005002 | 0 | 301 | 2.0 | 4.0 | 0.00 | 0.48 | 0.09 | 1014.5 | |
| 20260507004001 | 0 | 290 | 3.0 | 4.0 | 0.00 | 0.48 | 0.09 | 1014.3 | |
| 20260507003501 | 0 | 286 | 1.0 | 4.0 | 0.00 | 0.48 | 0.09 | 1014.1 | |
| 20260507003002 | 0 | 293 | 2.0 | 7.0 | 0.00 | 0.48 | 0.09 | 1014.1 | |
| 20260507002504 | 0 | 288 | 3.0 | 7.0 | 0.00 | 0.48 | 0.09 | 1014.0 | |
| 20260507002003 | 0 | 296 | 3.0 | 6.0 | 0.00 | 0.48 | 0.09 | 1013.9 | |
| 20260507001503 | 0 | 293 | 3.0 | 5.0 | 0.00 | 0.48 | 0.09 | 1013.9 | |
| 20260507000502 | 0 | 295 | 3.0 | 6.0 | 0.00 | 0.48 | 0.09 | 1013.7 | |
| 20260507000005 | 0 | 295 | 4.0 | 7.0 | 0.00 | 0.48 | 0.09 | 1013.7 | |
| 20260506235504 | 0 | 295 | 4.0 | 8.0 | 0.00 | 0.56 | 0.09 | 1013.8 | |
| 20260506234502 | 0 | 297 | 5.0 | 9.0 | 0.00 | 0.56 | 0.09 | 1013.8 | |
| 20260506234002 | 0 | 302 | 4.0 | 7.0 | 0.00 | 0.56 | 0.09 | 1013.8 | |
| 20260506233503 | 0 | 302 | 5.0 | 7.0 | 0.00 | 0.56 | 0.09 | 1013.8 |